Location: Austin
(30.3000°N, 97.7500°W)
Time: 15:10:43
(UTC-06:00)

SJ-12 - Pass Details

Date: 10 January 2026
Orbit: 517 x 525 km, 97.8° (Epoch: 20 January)

Event Time Altitude Azimuth Distance (km) Brightness Sun altitude
Rises 18:35:48 0° 174° (S) 2,636 7.5 -10.2°
Reaches altitude 10° 18:37:54 10° 177° (S) 1,754 6.6 -10.6°
Maximum altitude 18:41:38 63° 259° (W) 590 4.3 -11.4°
Drops below altitude 10° 18:45:26 10° 341° (NNW) 1,770 6.4 -12.2°
Sets 18:47:34 0° 345° (NNW) 2,664 7.3 -12.6°
